Lapse_Rate
5.9 6.1 6.1 6.1 6.1 6.1 6.1 6.1 6.2 6.2 6.3 6.3 6.4 6.4 6.3 6.2 6.2 6.1 6.1 6.1 6.2 6.2 6.2 6.2 6.3 6.1 6.1 6.1 6.0 6.0 6.0 6.0 6.0 5.9 5.9 5.9 6.0 6.0 6.0 6.0 6.0 5.9 5.9
6.2 6.0 5.9 6.0 6.0 6.0 6.0 6.1 6.1 6.0 6.1 6.1 6.1 6.3 6.5 6.5 6.3 6.3 6.3 6.2 6.1 6.2 6.1 6.2 6.2 6.1 6.0 6.0 6.0 6.0 6.0 6.1 6.0 6.0 5.9 5.9 6.0 6.1 6.0 6.0 6.0 6.0 5.9
6.1 6.2 6.2 6.1 5.9 5.8 6.0 6.0 6.1 6.2 6.3 6.0 6.1 6.0 6.0 6.2 6.4 6.5 6.3 6.4 6.3 6.2 6.2 6.2 6.2 6.1 6.0 5.9 5.9 6.0 6.1 6.1 6.1 6.1 6.0 6.0 6.0 6.1 6.1 6.0 5.9 5.9 5.9
6.3 6.2 6.1 6.2 6.3 6.3 6.0 5.9 5.9 5.9 6.2 6.3 6.3 6.2 5.9 5.8 5.9 6.0 6.1 6.2 6.4 6.4 6.3 6.2 6.3 6.2 6.0 5.9 5.9 6.0 6.1 6.1 6.1 6.1 6.1 6.1 6.2 6.2 6.1 6.0 5.9 5.8 5.8
6.8 6.4 5.8 6.2 6.0 5.9 6.1 6.2 6.2 6.1 6.0 6.0 6.1 6.0 6.1 6.0 5.9 5.9 5.9 6.1 6.1 6.2 6.4 6.3 6.2 6.2 6.2 6.1 6.0 6.1 6.1 6.1 6.1 6.1 6.1 6.1 6.2 6.2 6.1 6.0 6.0 5.9 5.8
5.9 6.3 6.2 6.3 6.0 5.7 5.6 5.7 6.1 6.2 6.3 6.4 6.1 6.1 6.1 6.0 6.0 6.1 6.1 6.1 6.1 6.2 6.2 6.4 6.4 6.2 6.3 6.2 6.2 6.2 6.2 6.1 6.1 6.1 6.1 6.2 6.2 6.2 6.1 6.0 6.0 5.9 5.9
5.0 5.4 5.8 6.0 5.7 5.6 6.3 6.1 5.4 5.3 5.9 6.1 6.0 6.4 6.3 6.2 6.1 6.2 6.3 6.2 6.4 6.4 6.1 6.2 6.3 6.3 6.3 6.2 6.1 6.1 6.2 6.1 6.1 6.1 6.1 6.1 6.1 6.2 6.2 6.2 6.2 6.1 6.1
4.9 5.4 5.5 5.5 5.3 5.7 5.9 5.4 5.7 5.7 6.1 5.8 5.7 5.9 6.1 6.4 6.5 6.5 6.4 6.4 6.4 6.4 6.2 6.3 6.1 6.2 6.3 6.3 6.3 6.2 6.2 6.3 6.4 6.3 6.3 6.2 6.3 6.3 6.4 6.5 6.5 6.4 6.3
6.1 5.7 5.7 5.5 5.3 5.4 5.5 5.7 5.7 5.5 5.8 6.1 5.9 5.1 5.4 6.2 6.6 6.6 6.5 6.4 6.3 6.4 6.4 6.4 6.3 6.3 6.4 6.5 6.6 6.5 6.3 6.4 6.4 6.4 6.4 6.4 6.4 6.5 6.6 6.7 6.8 6.7 6.6
5.6 5.9 6.0 6.3 5.9 5.6 5.3 5.4 5.8 6.0 5.6 5.5 5.8 5.5 5.7 5.5 6.0 6.4 6.7 6.6 6.5 6.5 6.4 6.5 6.4 6.5 6.6 6.6 6.6 6.6 6.6 6.5 6.5 6.4 6.6 6.5 6.5 6.6 6.8 6.8 6.8 6.8 6.8
5.3 5.3 5.4 5.5 5.8 6.1 6.1 5.5 5.7 6.2 6.0 5.9 5.8 5.8 5.9 5.8 5.7 5.8 6.4 6.9 6.7 6.5 6.5 6.6 6.6 6.4 6.3 6.4 6.5 6.5 6.6 6.8 6.7 6.7 6.8 6.7 6.6 6.7 6.8 6.8 6.9 7.0 7.0
5.6 5.5 5.4 5.4 5.5 5.7 5.8 6.0 5.9 5.9 5.9 5.4 5.5 5.9 5.9 5.4 5.8 5.9 5.9 6.2 6.6 6.9 6.7 6.5 6.4 6.4 6.6 6.6 6.6 6.5 6.6 6.8 6.8 6.8 6.8 6.9 6.8 6.7 6.7 6.6 6.7 6.9 6.9
6.0 5.9 6.0 6.0 5.9 5.8 5.7 5.8 5.9 5.8 5.9 5.6 5.6 5.7 5.5 5.5 5.9 5.4 5.4 5.8 6.0 6.6 6.8 6.8 6.7 6.7 6.6 6.5 6.4 6.5 6.5 6.5 6.6 6.6 6.7 6.8 6.8 6.8 6.7 6.6 6.7 6.8 7.0
6.3 6.2 6.2 6.3 6.3 6.2 6.1 5.8 5.5 5.4 5.6 5.9 5.8 5.0 5.3 5.9 5.7 5.7 5.7 4.8 5.6 5.4 6.2 6.8 6.7 6.7 6.9 6.8 6.7 6.6 6.6 6.5 6.5 6.6 6.6 6.6 6.6 6.7 6.6 6.5 6.7 6.8 7.0
6.1 6.1 6.1 6.1 6.1 6.0 6.1 6.3 6.3 6.1 5.9 5.6 5.5 5.4 5.7 5.9 5.7 5.6 5.6 5.2 5.2 5.2 5.2 5.2 5.7 6.2 6.6 6.8 6.8 6.8 6.7 6.8 6.8 6.8 6.8 6.8 6.9 6.8 6.7 6.5 6.6 6.9 7.1
6.3 6.2 6.3 6.2 6.2 6.1 6.2 6.2 6.3 6.4 6.4 6.2 6.0 5.9 5.3 5.4 5.4 5.6 5.3 6.2 5.2 4.5 4.5 5.3 5.5 5.5 5.4 5.5 5.9 6.3 6.6 6.7 6.7 6.8 7.0 6.9 6.7 6.7 6.7 6.7 6.6 6.7 7.0
6.3 6.4 6.4 6.4 6.4 6.4 6.3 6.3 6.3 6.2 6.2 6.5 6.4 6.7 6.4 5.8 5.3 5.7 5.3 5.4 5.1 5.1 4.9 4.4 4.2 5.5 5.2 4.8 5.4 5.8 5.7 5.8 5.8 6.2 6.6 6.9 7.0 6.9 6.9 6.8 6.7 6.9 7.1
6.3 6.4 6.4 6.4 6.4 6.3 6.2 6.2 6.3 6.2 6.1 6.1 6.1 6.2 6.2 6.2 6.1 5.8 5.6 5.1 5.1 5.4 5.7 5.3 5.0 5.3 5.3 5.8 4.9 5.5 4.9 5.6 5.6 6.1 6.4 6.4 6.2 6.1 6.6 6.4 6.5 6.6 6.9
6.2 6.2 6.1 6.1 6.1 6.1 6.1 6.1 6.0 6.2 6.2 6.0 5.9 5.9 5.8 5.8 5.8 5.8 5.7 4.7 4.7 4.8 4.8 5.3 4.7 5.3 4.6 5.4 6.1 5.1 5.3 4.6 5.0 5.3 6.3 6.3 6.3 6.4 6.1 6.4 6.2 6.4 6.6
6.0 6.0 6.0 6.0 6.0 5.9 5.8 5.9 6.0 6.0 5.9 5.8 5.7 5.6 5.8 5.6 5.5 5.4 5.4 5.6 5.1 4.4 4.6 4.4 4.5 5.4 5.4 5.8 5.1 4.4 4.6 5.5 5.6 5.3 6.2 6.5 6.5 7.2 7.1 6.4 6.5 6.7 6.5
5.8 5.7 5.8 5.7 5.7 5.7 5.7 5.6 5.7 5.5 5.3 5.2 5.2 5.2 5.4 5.7 5.5 5.4 5.2 5.2 5.6 5.3 4.2 4.1 4.5 4.7 4.2 4.5 4.5 4.6 4.7 5.0 6.1 6.0 6.4 6.1 6.5 6.8 5.6 4.7 5.2 5.6 6.1
5.8 5.8 5.6 5.5 5.5 5.6 5.5 5.4 5.3 5.1 5.1 4.9 5.0 5.5 5.6 5.8 5.8 5.8 5.5 5.3 5.3 5.5 5.2 5.0 4.7 4.4 4.4 4.6 4.9 5.7 5.4 5.5 5.6 6.0 5.5 5.9 6.6 5.9 5.9 5.0 4.8 5.4 5.4
5.8 5.7 5.4 5.4 5.3 5.3 5.2 5.2 5.2 5.2 5.1 5.3 5.5 5.7 6.2 6.3 6.0 6.1 6.2 6.1 5.8 5.6 5.5 5.1 4.8 4.7 4.7 4.4 4.5 4.7 4.9 5.4 5.1 5.2 5.6 6.0 5.8 6.2 6.5 6.0 5.0 5.2 5.2
5.7 5.5 5.3 5.3 5.3 5.3 5.3 5.1 5.1 5.3 5.4 6.0 6.4 6.5 6.6 6.8 6.7 6.5 6.6 6.9 6.7 6.6 6.3 5.7 5.3 5.3 5.0 5.0 4.5 4.5 4.6 4.7 4.8 5.2 5.5 5.4 5.4 5.2 5.0 5.2 5.7 5.5 5.5
5.6 5.5 5.2 5.2 5.3 5.3 5.3 5.2 5.1 5.2 5.7 6.6 6.8 6.7 6.7 6.8 6.7 6.8 6.9 7.1 7.3 7.3 6.9 6.5 6.1 5.9 6.0 5.0 4.8 4.4 5.0 4.8 5.1 5.2 5.4 5.4 5.5 5.6 5.2 4.9 5.2 5.8 5.4
5.4 5.3 5.2 5.2 5.3 5.4 5.4 5.2 5.1 5.2 5.8 6.6 7.0 7.1 6.9 6.8 6.9 6.9 7.0 7.1 7.2 7.2 7.4 7.2 6.9 6.3 6.2 6.0 5.2 4.6 4.8 5.0 5.1 5.0 5.2 5.0 5.0 5.2 5.4 5.8 5.9 5.6 5.5
Wind_Speed
6 9 10 10 12 12 11 10 11 10 11 13 14 14 14 15 17 16 13 16 27 28 25 25 26 26 27 27 27 27 26 26 26 25 25 25 25 24 25 24 24 24 23
10 8 6 9 11 14 14 13 10 8 8 10 9 14 15 15 16 17 18 17 24 31 30 28 27 28 28 28 28 29 29 28 27 27 26 26 26 26 26 26 25 24 23
15 11 6 4 12 14 15 12 10 9 4 7 8 9 13 15 15 16 18 18 19 29 33 31 29 29 29 29 29 29 29 29 29 28 28 27 27 27 27 27 26 25 24
19 13 5 4 13 13 11 5 6 6 6 6 8 8 9 12 16 16 17 18 17 17 22 33 33 31 31 31 30 30 30 29 29 29 29 29 29 29 28 28 28 27 26
19 14 9 10 14 7 5 5 6 6 7 7 8 9 8 8 10 14 13 17 20 21 20 23 32 35 34 33 32 32 31 30 29 30 30 30 30 30 30 30 29 29 28
22 19 12 11 13 6 5 4 6 5 7 8 9 10 8 9 9 8 12 16 19 22 23 24 21 22 32 33 33 33 33 32 31 31 31 32 31 32 31 31 31 30 29
23 21 12 13 16 8 9 9 4 6 7 4 3 9 8 8 9 10 8 9 13 19 21 22 21 21 21 31 31 32 33 32 32 33 33 32 32 32 31 31 30 29 28
25 20 16 10 11 9 14 11 8 9 4 4 7 4 10 12 7 9 9 12 17 12 13 20 22 24 22 20 21 30 32 34 35 35 34 33 32 32 31 30 29 29 28
18 19 19 16 13 9 8 10 12 15 10 10 7 7 5 10 10 5 9 11 14 12 14 16 16 21 24 22 23 23 32 34 35 34 34 32 31 31 31 31 30 29 29
20 22 21 18 13 11 11 10 10 10 9 9 10 8 13 12 12 16 11 5 7 9 11 11 12 13 19 19 24 27 29 34 34 33 33 32 31 30 29 29 30 29 29
18 18 20 16 14 11 8 11 13 11 9 7 7 12 12 10 12 12 16 14 13 9 8 8 9 10 15 19 19 22 29 30 28 30 30 30 30 29 28 29 29 28 27
11 17 19 16 14 13 11 10 10 11 9 9 9 7 10 10 11 11 14 17 17 16 13 11 10 10 10 12 19 26 27 27 28 29 28 29 28 27 27 27 26 26 26
8 10 15 12 11 14 13 14 12 13 10 10 11 10 8 10 9 11 15 16 16 15 13 12 11 11 12 14 15 22 25 27 27 28 29 29 27 26 24 24 25 25 25
6 11 12 12 13 14 13 12 7 7 9 8 12 11 11 11 9 9 8 11 14 17 15 21 11 9 9 9 16 24 19 24 26 27 27 27 26 25 24 25 25 25 24
8 14 12 10 13 13 12 10 8 8 11 7 10 11 11 10 10 9 10 9 9 10 15 15 12 12 10 11 12 16 14 21 22 24 25 25 25 24 23 23 24 23 23
12 11 10 12 11 12 12 9 10 11 10 10 11 13 13 12 13 10 10 11 10 10 12 9 12 14 15 10 10 13 15 16 17 19 21 23 23 22 22 22 22 21 20
11 11 10 12 13 14 12 10 12 12 14 16 14 16 17 17 12 11 11 9 11 11 10 9 9 13 16 15 15 14 9 12 11 17 18 20 23 24 21 19 20 18 17
11 9 11 11 13 14 14 14 14 14 16 15 17 17 16 13 17 14 11 12 14 13 10 12 10 10 11 12 14 9 9 11 11 13 19 23 26 24 20 21 19 18 16
9 12 12 13 14 14 14 12 16 15 15 16 18 15 16 16 16 14 13 13 13 13 9 9 10 9 11 10 12 13 15 17 12 19 20 23 27 23 20 21 23 20 18
12 12 12 12 12 12 12 16 16 15 16 15 15 17 16 15 16 17 16 15 12 12 12 9 10 9 9 10 12 12 13 11 15 12 15 21 18 24 20 20 19 18 17
11 11 12 12 12 13 12 16 16 17 16 17 16 16 14 16 22 19 10 14 16 11 10 9 9 10 8 9 9 8 9 6 4 4 5 6 7 13 7 16 11 16 17
11 11 11 11 13 10 17 20 18 16 16 16 16 16 15 18 17 17 16 21 14 13 13 9 9 9 11 9 6 9 9 7 5 1 0 5 1 4 3 1 10 14 14
10 11 12 12 13 13 16 22 23 15 15 15 16 16 16 12 15 14 18 17 15 15 11 11 15 13 12 11 11 12 11 10 7 10 6 9 3 4 3 5 7 10 15
10 10 12 14 14 12 19 23 25 16 16 17 16 17 17 18 16 16 16 16 15 13 13 12 14 14 13 14 12 12 11 12 10 4 6 9 1 3 2 2 6 9 7
9 12 12 15 14 14 20 23 22 17 15 16 15 17 16 17 23 24 17 17 16 15 13 19 20 21 23 22 19 8 10 7 5 3 2 1 3 3 4 3 4 10 5
8 9 11 11 15 14 19 22 21 12 15 14 16 16 19 17 23 24 15 15 16 15 14 18 16 17 17 17 20 10 8 8 4 4 2 2 2 1 4 3 2 4 5
Wind_Direction
214 221 231 224 219 219 222 227 229 228 227 233 241 243 255 260 267 271 259 255 226 218 228 228 228 228 226 223 224 227 229 230 232 234 237 239 241 242 244 245 245 246 246
225 217 219 211 224 220 220 219 221 230 236 235 241 239 242 247 252 256 260 248 234 228 229 230 232 232 232 231 229 230 231 231 232 235 236 237 239 241 243 244 244 244 244
229 225 221 210 219 222 226 220 228 231 241 235 247 251 249 250 248 246 248 244 236 238 239 237 233 233 235 235 234 234 235 234 234 236 237 238 238 239 240 244 245 245 244
222 229 229 229 224 216 215 218 226 231 238 239 246 247 248 248 253 253 253 249 244 240 244 241 239 239 238 238 238 237 237 237 237 237 238 239 239 239 239 239 241 243 243
358 292 255 239 235 219 204 212 227 225 240 241 243 247 243 243 244 249 246 248 249 247 244 245 242 239 239 238 240 241 241 240 239 239 239 239 239 240 239 238 238 240 240
14 6 337 305 297 263 232 210 213 214 228 238 250 254 242 243 239 237 247 252 251 248 247 248 245 244 243 240 241 242 244 243 242 241 240 239 239 238 238 237 237 237 237
19 9 13 2 359 332 291 274 243 227 254 218 243 263 259 244 247 252 249 247 252 249 247 244 244 247 249 241 240 242 244 244 244 244 242 241 241 240 238 237 237 238 237
22 9 12 7 9 357 354 344 306 286 274 202 242 280 277 272 254 250 248 250 253 250 248 245 243 243 242 244 234 235 238 239 240 241 240 240 239 239 239 238 237 237 237
13 14 16 17 356 6 2 349 342 340 296 283 232 237 278 266 283 240 239 243 250 251 247 248 243 240 241 240 240 236 232 234 239 240 238 237 237 237 237 237 236 235 236
10 12 9 7 357 5 354 358 340 339 331 332 298 250 249 257 268 283 256 245 245 252 252 254 250 245 242 238 239 237 235 231 236 238 239 238 236 235 236 235 235 235 236
8 6 3 358 358 351 347 343 346 335 341 323 330 332 273 254 254 256 273 268 261 248 249 246 247 250 249 246 246 243 240 238 236 235 237 238 238 235 232 233 235 236 235
1 1 359 355 352 347 342 338 337 327 331 344 337 325 326 318 267 246 255 263 264 263 255 247 242 248 248 245 242 244 245 237 235 234 233 234 234 233 232 232 233 233 233
358 349 353 352 350 344 339 336 332 329 338 341 333 327 330 299 326 332 282 264 264 263 263 251 246 243 250 250 246 243 246 243 234 231 230 232 232 230 229 227 229 232 232
333 328 334 336 339 343 344 336 329 326 312 328 324 325 332 322 319 328 304 335 303 266 258 260 256 241 240 241 243 242 247 240 234 232 228 230 231 227 223 223 225 229 229
338 336 322 323 327 330 335 337 339 326 313 334 323 325 318 309 315 321 310 297 299 318 310 278 264 254 244 239 239 240 242 245 236 234 232 230 229 225 221 221 224 226 227
340 338 333 335 330 326 327 330 339 335 325 336 330 320 323 322 320 316 307 320 306 287 286 309 324 326 321 284 250 241 246 240 242 239 238 234 227 222 217 216 219 220 220
343 342 337 335 337 336 334 328 328 331 332 333 326 329 321 318 311 313 306 300 302 316 295 289 272 294 277 277 283 295 272 252 249 237 239 237 233 221 213 212 224 218 212
342 343 341 339 341 340 336 332 327 331 336 324 325 322 316 315 311 307 299 311 309 303 290 306 313 299 292 273 263 258 273 287 266 251 241 244 240 233 210 217 225 224 217
351 352 348 344 341 338 337 332 343 334 326 323 320 311 310 312 310 307 310 311 301 307 306 310 306 304 291 275 269 260 259 254 259 263 256 241 236 220 208 208 216 217 217
354 349 348 341 336 330 330 343 336 330 324 317 313 313 310 306 313 311 305 302 306 306 314 306 308 313 320 329 313 263 248 247 247 254 263 257 237 224 214 208 215 210 225
350 344 341 338 332 337 346 341 338 332 326 319 313 312 308 305 300 293 313 322 319 305 301 304 308 314 315 317 329 311 309 294 281 238 293 257 248 229 166 174 204 219 226
342 339 337 336 337 333 327 339 339 333 323 322 318 315 312 306 301 301 315 319 301 311 313 300 294 295 305 315 319 318 315 336 319 268 300 285 74 203 169 159 226 217 216
333 336 337 338 337 330 346 341 334 327 321 317 316 314 310 305 306 305 307 301 300 294 289 301 298 299 305 311 317 309 313 307 305 286 284 278 258 247 140 183 215 227 232
336 339 346 349 343 336 346 340 336 328 327 320 315 312 311 308 304 303 303 301 300 296 300 296 289 296 293 295 290 289 290 292 283 289 330 250 276 269 76 168 190 242 248
339 352 348 351 342 343 344 340 337 334 324 321 319 315 311 307 304 300 300 302 300 294 288 278 272 278 281 280 274 286 276 286 288 282 320 102 318 319 343 48 3 39 353
337 349 343 349 346 341 340 342 340 333 328 329 324 322 317 308 306 303 296 302 299 297 299 301 296 289 287 286 281 261 267 268 273 298 245 334 358 296 42 333 352 62 30